Погода в Шипицыне

Россия / Архангельская область     61°16′51″N   46°31′07″E
темп.,
°C
ветер,
м/с
пор.,
м/с
влажн.,
%
обл.,
%
осадки,
мм/ч
давл.,
гПа
погр.,
м
26 июля, пн
пн2600:00+13юз2771100 0.1 1016146
03:00+14зюз3106598 0.1 1015306
06:00+14з31076100 0.1 1016469
09:00+16з357199 0.3 1016573
12:00+19з476366 0.6 10141335
15:00+13зсз31295100 2.4 1015648
18:00+15зсз499239 0.3 1014830
21:00+11зсз24985 0.8 101674
27 июля, вт
вт2700:00+9сз23971 0.0 101665
03:00+7ссз279711 0.0 1018166
06:00+8сз39896 0.0 1018425
09:00+11сз486991 0.0 1018585
12:00+18сз584664 0.0 10171943
15:00+20сз593664 0.0 10152635
18:00+16сз285391 0.0 1015362
21:00+14зсз411582 0.0 1015334
28 июля, ср
ср2800:00+9сз23751 0.0 101559
03:00+7сз22888 0.0 101620
06:00+11ссз13695 0.0 1015197
09:00+16зсз1348100 0.0 1013828
12:00+20зсз3538100 0.0 10111706
15:00+12зюз2793100 1.2 1010216
18:00+13ююв259472 0.4 1008169
21:00+12зюз139869 1.6 100782
29 июля, чт
чт2900:00+12зюз22985 0.4 100638
03:00+10зсз119832 0.5 100512
06:00+13зсз019661 0.0 1005164
09:00+17с128372 0.0 1004479
12:00+23ссв125824 0.0 1003925
15:00+25св1349100 0.0 10021352
18:00+16в469797 4.4 1001116
21:00+15св2499100 5.8 1002111
30 июля, пт
пт3000:00+15ююв31096100 0.8 1000224
03:00+13ю2698100 0.9 998152
06:00+15юз31198100 0.8 998411
09:00+18юз3694100 2.1 999553
12:00+18з3892100 1.1 999758
15:00+19зюз497687 1.2 10001120
18:00+19з487314 0.2 1001988
21:00+16зюз398844 0.2 1002547